| time (UTC) | temp C | wind direction | speed KPH | gust KPH | rain 1hr cm | rain 24hr cm | rain mn cm | humidity % | barometer mb |
| 20260831003732 | 33 | 164 | 0.0 | 1.6 | 0.00 | 0.00 | 0.00 | 49 | 1014.0 |
| 20260831003226 | 33 | 164 | 0.0 | 8.0 | 0.00 | 0.00 | 0.00 | 49 | 1014.0 |
| 20260831002719 | 33 | 164 | 1.6 | 8.0 | 0.00 | 0.00 | 0.00 | 49 | 1014.0 |
| 20260831002214 | 33 | 164 | 1.6 | 8.0 | 0.00 | 0.00 | 0.00 | 48 | 1014.0 |
| 20260831001708 | 33 | 164 | 1.6 | 8.0 | 0.00 | 0.00 | 0.00 | 48 | 1014.0 |
| 20260831001432 | 33 | 165 | 1.6 | 11.3 | 0.00 | 0.00 | 0.00 | 47 | 1014.0 |
| 20260831000656 | 33 | 164 | 3.2 | 11.3 | 0.00 | 0.00 | 0.00 | 47 | 1014.0 |
| 20260831000150 | 34 | 132 | 3.2 | 8.0 | 0.00 | 0.00 | 0.00 | 46 | 1014.0 |
| 20260830235644 | 34 | 128 | 3.2 | 11.3 | 0.00 | 0.00 | 0.00 | 45 | 1014.0 |
| 20260830235138 | 34 | 162 | 3.2 | 11.3 | 0.00 | 0.00 | 0.00 | 46 | 1014.0 |
| 20260830234903 | 34 | 168 | 1.6 | 11.3 | 0.00 | 0.00 | 0.00 | 45 | 1014.1 |
| 20260830234125 | 34 | 128 | 3.2 | 14.5 | 0.00 | 0.00 | 0.00 | 46 | 1014.1 |
| 20260830233620 | 34 | 87 | 3.2 | 14.5 | 0.00 | 0.00 | 0.00 | 45 | 1014.2 |
| 20260830233114 | 34 | 146 | 3.2 | 14.5 | 0.00 | 0.00 | 0.00 | 45 | 1014.0 |
| 20260830232608 | 34 | 120 | 4.8 | 16.1 | 0.00 | 0.00 | 0.00 | 45 | 1014.1 |
| 20260830232334 | 35 | 136 | 3.2 | 16.1 | 0.00 | 0.00 | 0.00 | 45 | 1014.1 |
| 20260830231556 | 35 | 172 | 1.6 | 11.3 | 0.00 | 0.00 | 0.00 | 45 | 1014.1 |
| 20260830231049 | 35 | 146 | 1.6 | 8.0 | 0.00 | 0.00 | 0.00 | 47 | 1014.1 |
| 20260830230544 | 35 | 157 | 3.2 | 9.7 | 0.00 | 0.00 | 0.00 | 46 | 1014.1 |
| 20260830230038 | 35 | 100 | 4.8 | 11.3 | 0.00 | 0.00 | 0.00 | 46 | 1014.1 |
| 20260830225532 | 35 | 111 | 3.2 | 12.9 | 0.00 | 0.00 | 0.00 | 47 | 1014.2 |
| 20260830225025 | 35 | 104 | 3.2 | 12.9 | 0.00 | 0.00 | 0.00 | 47 | 1014.2 |
| 20260830224520 | 35 | 157 | 3.2 | 11.3 | 0.00 | 0.00 | 0.00 | 46 | 1014.3 |
| 20260830224014 | 35 | 153 | 4.8 | 11.3 | 0.00 | 0.00 | 0.00 | 45 | 1014.3 |
| 20260830223508 | 35 | 173 | 3.2 | 14.5 | 0.00 | 0.00 | 0.00 | 46 | 1014.3 |
| 20260830223002 | 35 | 113 | 4.8 | 14.5 | 0.00 | 0.00 | 0.00 | 46 | 1014.4 |
| 20260830222456 | 35 | 167 | 3.2 | 9.7 | 0.00 | 0.00 | 0.00 | 47 | 1014.5 |
| 20260830221949 | 35 | 134 | 4.8 | 11.3 | 0.00 | 0.00 | 0.00 | 48 | 1014.5 |
| 20260830221443 | 35 | 99 | 4.8 | 11.3 | 0.00 | 0.00 | 0.00 | 48 | 1014.5 |
| 20260830220943 | 34 | 121 | 3.2 | 12.9 | 0.00 | 0.00 | 0.00 | 49 | 1014.5 |
| 20260830220444 | 34 | 122 | 3.2 | 12.9 | 0.00 | 0.00 | 0.00 | 50 | 1014.4 |
| 20260830215944 | 34 | 190 | 3.2 | 14.5 | 0.00 | 0.00 | 0.00 | 51 | 1014.5 |
| 20260830215444 | 34 | 150 | 4.8 | 16.1 | 0.00 | 0.00 | 0.00 | 50 | 1014.6 |
| 20260830214943 | 35 | 111 | 4.8 | 16.1 | 0.00 | 0.00 | 0.00 | 48 | 1014.7 |
| 20260830214442 | 35 | 152 | 4.8 | 14.5 | 0.00 | 0.00 | 0.00 | 50 | 1014.7 |
| 20260830213942 | 35 | 97 | 3.2 | 12.9 | 0.00 | 0.00 | 0.00 | 49 | 1014.6 |
| 20260830213442 | 35 | 161 | 4.8 | 12.9 | 0.00 | 0.00 | 0.00 | 49 | 1014.8 |
| 20260830212942 | 35 | 127 | 4.8 | 14.5 | 0.00 | 0.00 | 0.00 | 49 | 1014.9 |
| 20260830212442 | 35 | 95 | 3.2 | 12.9 | 0.00 | 0.00 | 0.00 | 49 | 1014.8 |
| 20260830211938 | 35 | 153 | 3.2 | 12.9 | 0.00 | 0.00 | 0.00 | 49 | 1014.9 |
| 20260830211708 | 35 | 344 | 1.6 | 11.3 | 0.00 | 0.00 | 0.00 | 49 | 1014.9 |
| 20260830210938 | 35 | 142 | 1.6 | 11.3 | 0.00 | 0.00 | 0.00 | 50 | 1015.0 |
| 20260830210709 | 34 | 163 | 3.2 | 9.7 | 0.00 | 0.00 | 0.00 | 50 | 1015.2 |
| 20260830205938 | 33 | 116 | 3.2 | 11.3 | 0.00 | 0.00 | 0.00 | 50 | 1015.2 |
| 20260830205440 | 33 | 123 | 4.8 | 17.7 | 0.00 | 0.00 | 0.00 | 50 | 1015.4 |
| 20260830205212 | 33 | 103 | 3.2 | 17.7 | 0.00 | 0.00 | 0.00 | 51 | 1015.5 |
| 20260830204712 | 33 | 74 | 3.2 | 11.3 | 0.00 | 0.00 | 0.00 | 51 | 1015.5 |
| 20260830203941 | 34 | 138 | 4.8 | 16.1 | 0.00 | 0.00 | 0.00 | 50 | 1015.7 |
| 20260830202928 | 35 | 153 | 3.2 | 11.3 | 0.00 | 0.00 | 0.00 | 51 | 1015.8 |
| 20260830202422 | 35 | 187 | 3.2 | 16.1 | 0.00 | 0.00 | 0.00 | 50 | 1015.8 |
| 20260830201915 | 35 | 182 | 3.2 | 16.1 | 0.00 | 0.00 | 0.00 | 50 | 1016.1 |
| 20260830201414 | 35 | 230 | 3.2 | 14.5 | 0.00 | 0.00 | 0.00 | 49 | 1016.1 |
| 20260830200914 | 34 | 150 | 4.8 | 20.9 | 0.00 | 0.00 | 0.00 | 50 | 1016.2 |
| 20260830200644 | 34 | 246 | 3.2 | 20.9 | 0.00 | 0.00 | 0.00 | 51 | 1016.3 |
| 20260830200144 | 34 | 194 | 3.2 | 14.5 | 0.00 | 0.00 | 0.00 | 52 | 1016.5 |
| 20260830195414 | 34 | 94 | 3.2 | 11.3 | 0.00 | 0.00 | 0.00 | 51 | 1016.4 |
| 20260830194914 | 34 | 113 | 3.2 | 20.9 | 0.00 | 0.00 | 0.00 | 51 | 1016.6 |
| 20260830194413 | 34 | 82 | 3.2 | 20.9 | 0.00 | 0.00 | 0.00 | 51 | 1016.7 |
| 20260830193913 | 34 | 119 | 3.2 | 14.5 | 0.00 | 0.00 | 0.00 | 51 | 1016.8 |
| 20260830193413 | 34 | 213 | 3.2 | 14.5 | 0.00 | 0.00 | 0.00 | 51 | 1016.9 |
| 20260830192913 | 33 | 155 | 1.6 | 12.9 | 0.00 | 0.00 | 0.00 | 53 | 1016.9 |
| 20260830192413 | 33 | 113 | 1.6 | 11.3 | 0.00 | 0.00 | 0.00 | 53 | 1016.9 |
| 20260830191914 | 33 | 203 | 3.2 | 14.5 | 0.00 | 0.00 | 0.00 | 55 | 1017.0 |
| 20260830191413 | 33 | 147 | 3.2 | 14.5 | 0.00 | 0.00 | 0.00 | 56 | 1017.1 |
| 20260830190913 | 32 | 154 | 4.8 | 14.5 | 0.00 | 0.00 | 0.00 | 57 | 1017.3 |
| 20260830190413 | 32 | 101 | 4.8 | 11.3 | 0.00 | 0.00 | 0.00 | 56 | 1017.3 |
| 20260830185908 | 33 | 117 | 4.8 | 14.5 | 0.00 | 0.00 | 0.00 | 56 | 1017.4 |
| 20260830185633 | 33 | 224 | 3.2 | 14.5 | 0.00 | 0.00 | 0.00 | 56 | 1017.4 |
| 20260830184855 | 33 | 132 | 3.2 | 12.9 | 0.00 | 0.00 | 0.00 | 56 | 1017.4 |
| 20260830184349 | 32 | 92 | 3.2 | 12.9 | 0.00 | 0.00 | 0.00 | 57 | 1017.5 |
| 20260830183843 | 32 | 227 | 3.2 | 11.3 | 0.00 | 0.00 | 0.00 | 56 | 1017.5 |
| 20260830183336 | 32 | 122 | 3.2 | 11.3 | 0.00 | 0.00 | 0.00 | 56 | 1017.7 |
| 20260830182831 | 32 | 266 | 3.2 | 11.3 | 0.00 | 0.00 | 0.00 | 59 | 1017.8 |
| 20260830182324 | 32 | 146 | 3.2 | 11.3 | 0.00 | 0.00 | 0.00 | 60 | 1017.9 |
| 20260830181818 | 32 | 290 | 3.2 | 11.3 | 0.00 | 0.00 | 0.00 | 60 | 1017.9 |
| 20260830181544 | 32 | 288 | 4.8 | 12.9 | 0.00 | 0.00 | 0.00 | 58 | 1018.2 |
| 20260830180808 | 32 | 171 | 4.8 | 17.7 | 0.00 | 0.00 | 0.00 | 60 | 1018.3 |
| 20260830180301 | 32 | 170 | 3.2 | 17.7 | 0.00 | 0.00 | 0.00 | 59 | 1018.4 |
| 20260830175755 | 32 | 259 | 3.2 | 9.7 | 0.00 | 0.00 | 0.00 | 59 | 1018.5 |
| 20260830175520 | 32 | 261 | 3.2 | 9.7 | 0.00 | 0.00 | 0.00 | 60 | 1018.5 |
| 20260830174743 | 32 | 213 | 3.2 | 12.9 | 0.00 | 0.00 | 0.00 | 61 | 1018.5 |
| 20260830174237 | 32 | 176 | 4.8 | 16.1 | 0.00 | 0.00 | 0.00 | 62 | 1018.6 |
| 20260830174001 | 32 | 96 | 4.8 | 16.1 | 0.00 | 0.00 | 0.00 | 60 | 1018.6 |
| 20260830173225 | 32 | 184 | 3.2 | 14.5 | 0.00 | 0.00 | 0.00 | 60 | 1018.4 |
| 20260830172719 | 31 | 161 | 3.2 | 11.3 | 0.00 | 0.00 | 0.00 | 63 | 1018.6 |
| 20260830172213 | 31 | 138 | 3.2 | 11.3 | 0.00 | 0.00 | 0.00 | 64 | 1018.6 |
| 20260830171707 | 31 | 259 | 3.2 | 11.3 | 0.00 | 0.00 | 0.00 | 63 | 1018.7 |
| 20260830171201 | 31 | 134 | 1.6 | 11.3 | 0.00 | 0.00 | 0.00 | 64 | 1018.7 |
| 20260830170655 | 31 | 119 | 3.2 | 11.3 | 0.00 | 0.00 | 0.00 | 65 | 1018.7 |
| 20260830170149 | 31 | 114 | 4.8 | 12.9 | 0.00 | 0.00 | 0.00 | 65 | 1018.8 |
| 20260830165643 | 31 | 162 | 3.2 | 14.5 | 0.00 | 0.00 | 0.00 | 64 | 1018.9 |
| 20260830165137 | 31 | 144 | 1.6 | 14.5 | 0.00 | 0.00 | 0.00 | 66 | 1018.9 |
| 20260830164630 | 31 | 290 | 3.2 | 9.7 | 0.00 | 0.00 | 0.00 | 66 | 1018.9 |
| 20260830164125 | 31 | 159 | 3.2 | 11.3 | 0.00 | 0.00 | 0.00 | 66 | 1019.0 |
| 20260830163619 | 30 | 154 | 1.6 | 11.3 | 0.00 | 0.00 | 0.00 | 67 | 1019.0 |
| 20260830163343 | 30 | 209 | 1.6 | 8.0 | 0.00 | 0.00 | 0.00 | 69 | 1018.9 |
| 20260830162607 | 30 | 280 | 1.6 | 8.0 | 0.00 | 0.00 | 0.00 | 69 | 1018.9 |
| 20260830162101 | 30 | 261 | 1.6 | 6.4 | 0.00 | 0.00 | 0.00 | 70 | 1018.9 |
| 20260830161555 | 30 | 271 | 1.6 | 4.8 | 0.00 | 0.00 | 0.00 | 71 | 1018.9 |
| 20260830161319 | 29 | 279 | 1.6 | 6.4 | 0.00 | 0.00 | 0.00 | 73 | 1018.9 |
| 20260830160543 | 29 | 248 | 1.6 | 6.4 | 0.00 | 0.00 | 0.00 | 74 | 1018.9 |
| 20260830160037 | 28 | 244 | 1.6 | 8.0 | 0.00 | 0.00 | 0.00 | 74 | 1019.0 |
| 20260830155531 | 28 | 166 | 1.6 | 9.7 | 0.00 | 0.00 | 0.00 | 73 | 1019.0 |
| 20260830155024 | 29 | 157 | 3.2 | 12.9 | 0.00 | 0.00 | 0.00 | 73 | 1019.1 |
| 20260830154518 | 29 | 189 | 3.2 | 11.3 | 0.00 | 0.00 | 0.00 | 73 | 1019.2 |
| 20260830154012 | 29 | 169 | 3.2 | 11.3 | 0.00 | 0.00 | 0.00 | 74 | 1019.2 |
| 20260830153507 | 29 | 209 | 3.2 | 12.9 | 0.00 | 0.00 | 0.00 | 74 | 1019.1 |
| 20260830153001 | 28 | 237 | 3.2 | 12.9 | 0.00 | 0.00 | 0.00 | 74 | 1019.1 |
| 20260830152455 | 28 | 168 | 3.2 | 12.9 | 0.00 | 0.00 | 0.00 | 76 | 1019.0 |
| 20260830151949 | 28 | 214 | 3.2 | 12.9 | 0.00 | 0.00 | 0.00 | 76 | 1018.9 |
| 20260830151443 | 28 | 202 | 3.2 | 12.9 | 0.00 | 0.00 | 0.00 | 75 | 1019.0 |
| 20260830150937 | 28 | 239 | 1.6 | 12.9 | 0.00 | 0.00 | 0.00 | 76 | 1019.0 |
| 20260830150431 | 28 | 216 | 1.6 | 11.3 | 0.00 | 0.00 | 0.00 | 77 | 1018.9 |
| 20260830145924 | 28 | 194 | 1.6 | 6.4 | 0.00 | 0.00 | 0.00 | 78 | 1019.0 |
| 20260830145419 | 27 | 189 | 3.2 | 14.5 | 0.00 | 0.00 | 0.00 | 79 | 1019.0 |
| 20260830144915 | 27 | 269 | 3.2 | 14.5 | 0.00 | 0.00 | 0.00 | 80 | 1019.0 |
| 20260830144414 | 27 | 227 | 3.2 | 12.9 | 0.00 | 0.00 | 0.00 | 80 | 1019.0 |
| 20260830144147 | 27 | 221 | 1.6 | 11.3 | 0.00 | 0.00 | 0.00 | 82 | 1019.0 |
| 20260830143414 | 27 | 207 | 1.6 | 11.3 | 0.00 | 0.00 | 0.00 | 83 | 1019.0 |
| 20260830143145 | 26 | 266 | 1.6 | 6.4 | 0.00 | 0.00 | 0.00 | 83 | 1018.8 |
| 20260830142414 | 26 | 270 | 1.6 | 6.4 | 0.00 | 0.00 | 0.00 | 82 | 1018.8 |
| 20260830141914 | 26 | 167 | 1.6 | 6.4 | 0.00 | 0.00 | 0.00 | 83 | 1018.8 |
| 20260830141414 | 26 | 164 | 0.0 | 6.4 | 0.00 | 0.00 | 0.00 | 85 | 1018.9 |
| 20260830140914 | 26 | 164 | 1.6 | 6.4 | 0.00 | 0.00 | 0.00 | 86 | 1018.9 |
| 20260830140410 | 25 | 164 | 1.6 | 6.4 | 0.00 | 0.00 | 0.00 | 86 | 1018.9 |
| 20260830135911 | 25 | 165 | 0.0 | 6.4 | 0.00 | 0.00 | 0.00 | 87 | 1019.0 |
| 20260830135411 | 25 | 165 | 1.6 | 8.0 | 0.00 | 0.00 | 0.00 | 87 | 1018.9 |
| 20260830134911 | 25 | 163 | 1.6 | 8.0 | 0.00 | 0.00 | 0.00 | 87 | 1018.9 |
| 20260830134411 | 25 | 162 | 1.6 | 8.0 | 0.00 | 0.00 | 0.00 | 88 | 1018.8 |
| 20260830133911 | 25 | 162 | 1.6 | 8.0 | 0.00 | 0.00 | 0.00 | 88 | 1018.9 |
| 20260830133411 | 25 | 158 | 1.6 | 4.8 | 0.00 | 0.00 | 0.00 | 89 | 1018.8 |
| 20260830132410 | 25 | 156 | 0.0 | 4.8 | 0.00 | 0.00 | 0.00 | 89 | 1018.7 |
| 20260830131358 | 24 | 156 | 0.0 | 4.8 | 0.00 | 0.00 | 0.00 | 90 | 1018.6 |
| 20260830131122 | 24 | 156 | 0.0 | 3.2 | 0.00 | 0.00 | 0.00 | 90 | 1018.6 |
| 20260830130346 | 24 | 156 | 0.0 | 3.2 | 0.00 | 0.00 | 0.00 | 90 | 1018.5 |
| 20260830130113 | 24 | 156 | 0.0 | 4.8 | 0.00 | 0.00 | 0.00 | 90 | 1018.4 |
| 20260830125334 | 24 | 156 | 0.0 | 4.8 | 0.00 | 0.00 | 0.00 | 90 | 1018.3 |
| 20260830124553 | 24 | 178 | 0.0 | 3.2 | 0.00 | 0.00 | 0.00 | 90 | 1018.3 |
| 20260830123815 | 24 | 178 | 0.0 | 3.2 | 0.00 | 0.00 | 0.00 | 90 | 1018.2 |
| 20260830123310 | 24 | 178 | 0.0 | 3.2 | 0.00 | 0.00 | 0.00 | 90 | 1018.1 |
| 20260830122803 | 24 | 178 | 0.0 | 3.2 | 0.00 | 0.00 | 0.00 | 89 | 1018.1 |
| 20260830122258 | 24 | 178 | 0.0 | 3.2 | 0.00 | 0.00 | 0.00 | 89 | 1018.1 |
| 20260830121752 | 24 | 178 | 0.0 | 6.4 | 0.00 | 0.00 | 0.00 | 89 | 1018.1 |
| 20260830121246 | 24 | 178 | 1.6 | 6.4 | 0.00 | 0.00 | 0.00 | 89 | 1018.1 |
| 20260830120739 | 24 | 178 | 0.0 | 4.8 | 0.00 | 0.00 | 0.00 | 89 | 1018.1 |
| 20260830120233 | 24 | 178 | 0.0 | 4.8 | 0.00 | 0.00 | 0.00 | 89 | 1018.1 |
| 20260830115728 | 24 | 177 | 0.0 | 4.8 | 0.00 | 0.00 | 0.00 | 89 | 1018.1 |
| 20260830115222 | 24 | 178 | 1.6 | 6.4 | 0.00 | 0.00 | 0.00 | 89 | 1018.1 |
| 20260830114716 | 24 | 178 | 1.6 | 6.4 | 0.00 | 0.00 | 0.00 | 89 | 1017.9 |
| 20260830114210 | 24 | 176 | 0.0 | 3.2 | 0.00 | 0.00 | 0.00 | 88 | 1017.9 |
| 20260830113703 | 24 | 176 | 0.0 | 4.8 | 0.00 | 0.00 | 0.00 | 88 | 1017.9 |
| 20260830113158 | 24 | 176 | 0.0 | 4.8 | 0.00 | 0.00 | 0.00 | 88 | 1017.9 |
| 20260830112652 | 24 | 176 | 0.0 | 3.2 | 0.00 | 0.00 | 0.00 | 88 | 1017.9 |
| 20260830112146 | 24 | 176 | 0.0 | 3.2 | 0.00 | 0.00 | 0.00 | 88 | 1018.1 |
| 20260830111912 | 24 | 176 | 0.0 | 1.6 | 0.00 | 0.00 | 0.00 | 88 | 1017.9 |
| 20260830110628 | 24 | 176 | 1.6 | 6.4 | 0.00 | 0.00 | 0.00 | 88 | 1018.1 |
| 20260830110122 | 24 | 176 | 1.6 | 6.4 | 0.00 | 0.00 | 0.00 | 88 | 1018.1 |
| 20260830105615 | 24 | 171 | 0.0 | 6.4 | 0.00 | 0.00 | 0.00 | 88 | 1018.1 |
| 20260830105110 | 24 | 171 | 0.0 | 6.4 | 0.00 | 0.00 | 0.00 | 88 | 1018.1 |
| 20260830104604 | 24 | 171 | 0.0 | 3.2 | 0.00 | 0.00 | 0.00 | 88 | 1018.1 |
| 20260830104058 | 24 | 171 | 0.0 | 3.2 | 0.00 | 0.00 | 0.00 | 88 | 1017.9 |
| 20260830103824 | 24 | 170 | 0.0 | 6.4 | 0.00 | 0.00 | 0.00 | 88 | 1017.9 |
| 20260830103046 | 24 | 170 | 0.0 | 6.4 | 0.00 | 0.00 | 0.00 | 88 | 1017.8 |
| 20260830102540 | 24 | 170 | 0.0 | 6.4 | 0.00 | 0.00 | 0.00 | 88 | 1017.9 |
| 20260830102034 | 24 | 170 | 0.0 | 3.2 | 0.00 | 0.00 | 0.00 | 88 | 1017.8 |
| 20260830101527 | 24 | 170 | 0.0 | 3.2 | 0.00 | 0.00 | 0.00 | 88 | 1018.1 |
| 20260830101022 | 24 | 170 | 0.0 | 1.6 | 0.00 | 0.00 | 0.00 | 87 | 1018.2 |
| 20260830100746 | 24 | 170 | 0.0 | 3.2 | 0.00 | 0.00 | 0.00 | 87 | 1017.9 |
| 20260830100010 | 24 | 170 | 0.0 | 3.2 | 0.00 | 0.00 | 0.00 | 87 | 1017.9 |
| 20260830095734 | 24 | 170 | 0.0 | 6.4 | 0.00 | 0.00 | 0.00 | 87 | 1018.1 |
| 20260830094958 | 24 | 170 | 0.0 | 6.4 | 0.00 | 0.00 | 0.00 | 87 | 1017.8 |
| 20260830094722 | 24 | 170 | 0.0 | 3.2 | 0.00 | 0.00 | 0.00 | 86 | 1017.9 |
| 20260830093954 | 24 | 170 | 0.0 | 3.2 | 0.00 | 0.00 | 0.00 | 86 | 1017.9 |
| 20260830093453 | 24 | 170 | 0.0 | 3.2 | 0.00 | 0.00 | 0.00 | 86 | 1018.1 |
| 20260830092948 | 24 | 170 | 0.0 | 3.2 | 0.00 | 0.00 | 0.00 | 86 | 1017.9 |
| 20260830092446 | 24 | 170 | 0.0 | 3.2 | 0.00 | 0.00 | 0.00 | 85 | 1018.1 |
| 20260830091944 | 24 | 170 | 0.0 | 1.6 | 0.00 | 0.00 | 0.00 | 85 | 1018.1 |
| 20260830091713 | 24 | 170 | 0.0 | 1.6 | 0.00 | 0.00 | 0.00 | 85 | 1017.8 |
| 20260830090942 | 24 | 170 | 0.0 | 1.6 | 0.00 | 0.00 | 0.00 | 85 | 1017.8 |
| 20260830090442 | 24 | 170 | 0.0 | 3.2 | 0.00 | 0.00 | 0.00 | 84 | 1017.9 |
| 20260830085940 | 24 | 170 | 0.0 | 6.4 | 0.00 | 0.00 | 0.00 | 84 | 1017.8 |
| 20260830085440 | 24 | 170 | 0.0 | 6.4 | 0.00 | 0.00 | 0.00 | 84 | 1017.8 |
| 20260830084940 | 24 | 170 | 0.0 | 0.0 | 0.00 | 0.00 | 0.00 | 84 | 1017.8 |
| 20260830084440 | 24 | 170 | 0.0 | 0.0 | 0.00 | 0.00 | 0.00 | 83 | 1017.9 |
| 20260830083944 | 24 | 170 | 0.0 | 0.0 | 0.00 | 0.00 | 0.00 | 83 | 1017.8 |
| 20260830083438 | 25 | 170 | 0.0 | 3.2 | 0.00 | 0.00 | 0.00 | 82 | 1017.9 |
| 20260830082936 | 25 | 170 | 0.0 | 3.2 | 0.00 | 0.00 | 0.00 | 82 | 1017.8 |
| 20260830082434 | 25 | 170 | 0.0 | 3.2 | 0.00 | 0.00 | 0.00 | 82 | 1017.8 |
| 20260830081932 | 25 | 170 | 0.0 | 3.2 | 0.00 | 0.00 | 0.00 | 81 | 1017.9 |
| 20260830081429 | 25 | 170 | 0.0 | 3.2 | 0.00 | 0.00 | 0.00 | 81 | 1018.1 |
| 20260830080928 | 25 | 170 | 0.0 | 3.2 | 0.00 | 0.00 | 0.00 | 81 | 1017.9 |
| 20260830080426 | 25 | 170 | 0.0 | 3.2 | 0.00 | 0.00 | 0.00 | 81 | 1018.1 |
| 20260830080155 | 25 | 170 | 1.6 | 8.0 | 0.00 | 0.00 | 0.00 | 80 | 1018.1 |
| 20260830075424 | 25 | 170 | 1.6 | 8.0 | 0.00 | 0.00 | 0.00 | 80 | 1018.2 |
| 20260830074422 | 25 | 171 | 1.6 | 8.0 | 0.00 | 0.00 | 0.00 | 80 | 1018.3 |
| 20260830073922 | 25 | 171 | 1.6 | 8.0 | 0.00 | 0.00 | 0.00 | 79 | 1018.3 |
| 20260830073422 | 25 | 171 | 0.0 | 8.0 | 0.00 | 0.00 | 0.00 | 79 | 1018.3 |
| 20260830072925 | 25 | 171 | 0.0 | 6.4 | 0.00 | 0.00 | 0.00 | 78 | 1018.4 |
| 20260830072425 | 25 | 171 | 0.0 | 1.6 | 0.00 | 0.00 | 0.00 | 78 | 1018.4 |
| 20260830071925 | 25 | 171 | 1.6 | 8.0 | 0.00 | 0.00 | 0.00 | 77 | 1018.3 |
| 20260830070922 | 26 | 171 | 3.2 | 11.3 | 0.00 | 0.00 | 0.00 | 77 | 1018.4 |
| 20260830070422 | 26 | 170 | 0.0 | 11.3 | 0.00 | 0.00 | 0.00 | 77 | 1018.4 |
| 20260830070152 | 26 | 151 | 0.0 | 3.2 | 0.00 | 0.00 | 0.00 | 76 | 1018.3 |
| 20260830065422 | 26 | 151 | 0.0 | 4.8 | 0.00 | 0.00 | 0.00 | 75 | 1018.3 |
| 20260830064922 | 26 | 151 | 1.6 | 8.0 | 0.00 | 0.00 | 0.00 | 75 | 1018.3 |
| 20260830064422 | 26 | 151 | 1.6 | 8.0 | 0.00 | 0.00 | 0.00 | 75 | 1018.3 |
| 20260830064153 | 26 | 150 | 1.6 | 8.0 | 0.00 | 0.00 | 0.00 | 74 | 1018.4 |
| 20260830063652 | 26 | 150 | 1.6 | 8.0 | 0.00 | 0.00 | 0.00 | 74 | 1018.3 |
| 20260830063152 | 26 | 150 | 1.6 | 8.0 | 0.00 | 0.00 | 0.00 | 73 | 1018.3 |
| 20260830062646 | 26 | 148 | 1.6 | 8.0 | 0.00 | 0.00 | 0.00 | 73 | 1018.3 |
| 20260830061909 | 26 | 144 | 1.6 | 6.4 | 0.00 | 0.00 | 0.00 | 72 | 1018.3 |
| 20260830061403 | 26 | 144 | 1.6 | 11.3 | 0.00 | 0.00 | 0.00 | 72 | 1018.3 |
| 20260830060857 | 27 | 141 | 3.2 | 11.3 | 0.00 | 0.00 | 0.00 | 72 | 1018.2 |
| 20260830060351 | 27 | 173 | 1.6 | 11.3 | 0.00 | 0.00 | 0.00 | 71 | 1018.3 |
| 20260830055343 | 27 | 139 | 6.4 | 14.5 | 0.00 | 0.00 | 0.00 | 71 | 1018.2 |
| 20260830054843 | 27 | 165 | 6.4 | 14.5 | 0.00 | 0.00 | 0.00 | 71 | 1018.2 |
| 20260830054342 | 27 | 150 | 6.4 | 14.5 | 0.00 | 0.00 | 0.00 | 70 | 1018.2 |
| 20260830053341 | 27 | 159 | 4.8 | 14.5 | 0.00 | 0.00 | 0.00 | 70 | 1018.2 |
| 20260830052840 | 27 | 153 | 4.8 | 17.7 | 0.00 | 0.00 | 0.00 | 70 | 1018.2 |
| 20260830052342 | 27 | 197 | 4.8 | 17.7 | 0.00 | 0.00 | 0.00 | 69 | 1018.2 |
| 20260830051839 | 27 | 155 | 3.2 | 11.3 | 0.00 | 0.00 | 0.00 | 69 | 1018.2 |
| 20260830051340 | 27 | 138 | 1.6 | 11.3 | 0.00 | 0.00 | 0.00 | 69 | 1018.1 |
| 20260830050839 | 28 | 130 | 3.2 | 11.3 | 0.00 | 0.00 | 0.00 | 69 | 1017.9 |
| 20260830050338 | 28 | 142 | 4.8 | 16.1 | 0.00 | 0.00 | 0.00 | 68 | 1018.1 |
| 20260830045835 | 28 | 146 | 4.8 | 16.1 | 0.00 | 0.00 | 0.00 | 68 | 1018.1 |
| 20260830045333 | 28 | 198 | 4.8 | 14.5 | 0.00 | 0.00 | 0.00 | 68 | 1018.1 |
| 20260830044833 | 28 | 142 | 3.2 | 12.9 | 0.00 | 0.00 | 0.00 | 67 | 1018.1 |
| 20260830044605 | 28 | 188 | 3.2 | 11.3 | 0.00 | 0.00 | 0.00 | 67 | 1018.2 |
| 20260830044102 | 28 | 167 | 4.8 | 11.3 | 0.00 | 0.00 | 0.00 | 67 | 1018.1 |
| 20260830043329 | 28 | 190 | 3.2 | 11.3 | 0.00 | 0.00 | 0.00 | 66 | 1018.2 |
| 20260830042829 | 28 | 159 | 3.2 | 11.3 | 0.00 | 0.00 | 0.00 | 66 | 1018.2 |
| 20260830042327 | 28 | 204 | 3.2 | 12.9 | 0.00 | 0.00 | 0.00 | 66 | 1018.2 |
| 20260830041823 | 28 | 190 | 3.2 | 12.9 | 0.00 | 0.00 | 0.00 | 65 | 1018.1 |
| 20260830041323 | 29 | 143 | 4.8 | 14.5 | 0.00 | 0.00 | 0.00 | 65 | 1018.1 |
| 20260830041054 | 29 | 165 | 3.2 | 14.5 | 0.00 | 0.00 | 0.00 | 65 | 1017.9 |
| 20260830040323 | 29 | 163 | 3.2 | 11.3 | 0.00 | 0.00 | 0.00 | 64 | 1017.9 |
| 20260830035823 | 29 | 148 | 4.8 | 14.5 | 0.00 | 0.00 | 0.00 | 64 | 1017.8 |
| 20260830035553 | 29 | 141 | 4.8 | 14.5 | 0.00 | 0.00 | 0.00 | 64 | 1017.8 |
| 20260830034323 | 29 | 213 | 3.2 | 14.5 | 0.00 | 0.00 | 0.00 | 63 | 1017.7 |
| 20260830033823 | 29 | 135 | 4.8 | 12.9 | 0.00 | 0.00 | 0.00 | 63 | 1017.8 |
| 20260830033323 | 30 | 229 | 4.8 | 12.9 | 0.00 | 0.00 | 0.00 | 63 | 1017.8 |
| 20260830032823 | 30 | 161 | 3.2 | 11.3 | 0.00 | 0.00 | 0.00 | 63 | 1017.8 |
| 20260830032554 | 30 | 161 | 3.2 | 11.3 | 0.00 | 0.00 | 0.00 | 63 | 1017.6 |
| 20260830031322 | 30 | 164 | 4.8 | 19.3 | 0.00 | 0.00 | 0.00 | 63 | 1017.5 |
| 20260830030823 | 30 | 171 | 4.8 | 19.3 | 0.00 | 0.00 | 0.00 | 63 | 1017.5 |
| 20260830030323 | 30 | 270 | 3.2 | 17.7 | 0.00 | 0.00 | 0.00 | 63 | 1017.4 |
| 20260830030054 | 30 | 116 | 4.8 | 17.7 | 0.00 | 0.00 | 0.00 | 63 | 1017.4 |
| 20260830025325 | 30 | 182 | 3.2 | 14.5 | 0.00 | 0.00 | 0.00 | 63 | 1017.3 |
| 20260830024823 | 30 | 165 | 3.2 | 11.3 | 0.00 | 0.00 | 0.00 | 63 | 1017.2 |
| 20260830024317 | 30 | 148 | 3.2 | 11.3 | 0.00 | 0.00 | 0.00 | 63 | 1017.1 |
| 20260830023806 | 29 | 159 | 1.6 | 8.0 | 0.00 | 0.00 | 0.00 | 63 | 1017.0 |
| 20260830023300 | 29 | 159 | 1.6 | 8.0 | 0.00 | 0.00 | 0.00 | 62 | 1016.9 |
| 20260830022520 | 29 | 155 | 0.0 | 0.0 | 0.00 | 0.00 | 0.00 | 63 | 1016.7 |
| 20260830021743 | 30 | 155 | 0.0 | 0.0 | 0.00 | 0.00 | 0.00 | 61 | 1016.4 |
| 20260830021237 | 30 | 155 | 0.0 | 0.0 | 0.00 | 0.00 | 0.00 | 60 | 1016.2 |
| 20260830020731 | 30 | 155 | 0.0 | 0.0 | 0.00 | 0.00 | 0.00 | 58 | 1016.1 |
| 20260830020225 | 30 | 155 | 0.0 | 0.0 | 0.00 | 0.00 | 0.00 | 57 | 1016.1 |
| 20260830015950 | 30 | 155 | 0.0 | 0.0 | 0.00 | 0.00 | 0.00 | 56 | 1016.0 |
| 20260830014707 | 31 | 155 | 0.0 | 0.0 | 0.00 | 0.00 | 0.00 | 56 | 1015.9 |
| 20260830014200 | 31 | 155 | 0.0 | 0.0 | 0.00 | 0.00 | 0.00 | 55 | 1015.9 |
| 20260830013654 | 31 | 155 | 0.0 | 0.0 | 0.00 | 0.00 | 0.00 | 54 | 1015.8 |
| 20260830013149 | 31 | 155 | 0.0 | 0.0 | 0.00 | 0.00 | 0.00 | 54 | 1015.7 |
| 20260830012643 | 31 | 155 | 0.0 | 0.0 | 0.00 | 0.00 | 0.00 | 54 | 1015.7 |
| 20260830012137 | 31 | 155 | 0.0 | 0.0 | 0.00 | 0.00 | 0.00 | 53 | 1015.6 |
| 20260830011631 | 32 | 155 | 0.0 | 0.0 | 0.00 | 0.00 | 0.00 | 53 | 1015.6 |
| 20260830011125 | 32 | 155 | 0.0 | 0.0 | 0.00 | 0.00 | 0.00 | 53 | 1015.5 |
| 20260830010849 | 32 | 155 | 0.0 | 0.0 | 0.00 | 0.00 | 0.00 | 52 | 1015.6 |
| 20260830010112 | 32 | 155 | 0.0 | 0.0 | 0.00 | 0.00 | 0.00 | 52 | 1015.6 |
| 20260830005606 | 32 | 155 | 0.0 | 1.6 | 0.00 | 0.00 | 0.00 | 52 | 1015.5 |
| 20260830005100 | 32 | 155 | 0.0 | 1.6 | 0.00 | 0.00 | 0.00 | 50 | 1015.6 |
| 20260830004554 | 33 | 155 | 0.0 | 1.6 | 0.00 | 0.00 | 0.00 | 50 | 1015.6 |